Weather History for Mineral Point, WI

Change the Weather History Date:

Thursday, November 29, 2012

  Actual Average (KLNR) Record (KLNR)
Temperature  
Mean Temperature 40 °F -  
Max Temperature 51 °F 39 °F 62 °F (1998)
Min Temperature 30 °F 24 °F 9 °F (2013)
Degree Days  
Heating Degree Days 24    
Moisture  
Dew Point 28 °F    
Average Humidity 67    
Maximum Humidity 87    
Minimum Humidity 44    
Precipitation  
Precipitation 0.00 in - - ()
Sea Level Pressure  
Sea Level Pressure 30.08 in    
Wind  
Wind Speed 7 mph (SE)    
Max Wind Speed 9 mph    
Max Gust Speed -    
Visibility 10 miles    
Events      
Averages and records for this station are not official NWS values.
T = Trace of Precipitation, MM = Missing Value Source: NWS Daily Summary

Daily Weather History Graph

Daily Weather History Graph

Search for Another Location

Airport:

Trip Planner

Search our weather history database for the weather conditions in past years. The results will help you decide how hot, cold, wet, or windy it might be!

Date:

Astronomy

Nov. 29, 2012 Rise Set
Actual Time 7:10 AM CST 4:28 PM CST
Civil Twilight 6:38 AM CST 4:59 PM CST
Nautical Twilight 6:03 AM CST 5:34 PM CST
Astronomical Twilight 5:29 AM CST 6:09 PM CST
Moon 5:31 PM CST (11/29) 7:57 AM CST (11/29)
Length of Visible Light 10h 20m
Length of Day
9h 17m
Full, 99% of the Moon is Illuminated
Nov 29
Full
Dec 6
Last Quarter
Dec 13
New
Dec 19
First Quarter
Dec 28
Full

Hourly Weather History & Observations

Time (CST) Temp. Windchill Dew Point Humidity Pressure Visibility Wind Dir Wind Speed Gust Speed Precip Events Conditions
12:15 AM 32.0 °F 24.8 °F 23.0 °F 69% 30.17 in 10.0 mi South 8.1 mph - N/A   Clear
12:35 AM 32.0 °F 25.6 °F 23.0 °F 69% 30.18 in 10.0 mi South 6.9 mph - N/A   Clear
12:55 AM 32.0 °F 25.6 °F 23.0 °F 69% 30.18 in 10.0 mi South 6.9 mph - N/A   Clear
1:15 AM 32.0 °F 24.8 °F 23.0 °F 69% 30.17 in 10.0 mi South 8.1 mph - N/A   Clear
1:35 AM 32.0 °F 26.4 °F 23.0 °F 69% 30.17 in 10.0 mi South 5.8 mph - N/A   Clear
1:55 AM 32.0 °F 27.5 °F 23.0 °F 69% 30.17 in 10.0 mi South 4.6 mph - N/A   Clear
2:15 AM 32.0 °F 26.4 °F 23.0 °F 69% 30.17 in 10.0 mi South 5.8 mph - N/A   Clear
2:35 AM 32.0 °F 25.6 °F 23.0 °F 69% 30.16 in 10.0 mi South 6.9 mph - N/A   Clear
2:55 AM 32.0 °F 25.6 °F 23.0 °F 69% 30.15 in 10.0 mi SSE 6.9 mph - N/A   Clear
3:15 AM 32.0 °F 24.2 °F 24.8 °F 75% 30.14 in 10.0 mi South 9.2 mph - N/A   Clear
3:35 AM 30.2 °F 23.4 °F 24.8 °F 80% 30.14 in 10.0 mi SSE 6.9 mph - N/A   Clear
3:55 AM 30.2 °F 23.4 °F 24.8 °F 80% 30.13 in 10.0 mi South 6.9 mph - N/A   Clear
4:15 AM 32.0 °F 26.4 °F 24.8 °F 75% 30.13 in 10.0 mi South 5.8 mph - N/A   Clear
4:35 AM 30.2 °F 24.3 °F 24.8 °F 80% 30.13 in 10.0 mi South 5.8 mph - N/A   Clear
4:55 AM 32.0 °F 26.4 °F 24.8 °F 75% 30.13 in 10.0 mi South 5.8 mph - N/A   Clear
5:15 AM 30.2 °F 24.3 °F 24.8 °F 80% 30.13 in 10.0 mi SSE 5.8 mph - N/A   Clear
5:35 AM 30.2 °F 23.4 °F 24.8 °F 80% 30.13 in 10.0 mi SSE 6.9 mph - N/A   Clear
5:55 AM 30.2 °F 23.4 °F 24.8 °F 80% 30.12 in 10.0 mi SSE 6.9 mph - N/A   Clear
6:15 AM 30.2 °F 22.6 °F 26.6 °F 86% 30.12 in 10.0 mi South 8.1 mph - N/A   Clear
6:35 AM 30.2 °F 23.4 °F 24.8 °F 80% 30.12 in 10.0 mi South 6.9 mph - N/A   Clear
6:55 AM 30.2 °F 22.6 °F 24.8 °F 80% 30.12 in 10.0 mi SSE 8.1 mph - N/A   Clear
7:15 AM 30.2 °F 23.4 °F 26.6 °F 86% 30.12 in 10.0 mi SSE 6.9 mph - N/A   Clear
7:35 AM 30.2 °F 25.4 °F 26.6 °F 86% 30.12 in 7.0 mi SE 4.6 mph - N/A   Clear
7:55 AM 30.2 °F 24.3 °F 26.6 °F 86% 30.12 in 7.0 mi SE 5.8 mph - N/A   Clear
8:15 AM 32.0 °F 26.4 °F 26.6 °F 80% 30.12 in 7.0 mi SE 5.8 mph - N/A   Clear
8:35 AM 32.0 °F 24.8 °F 28.4 °F 87% 30.12 in 10.0 mi SSE 8.1 mph - N/A   Clear
8:55 AM 33.8 °F 27.0 °F 28.4 °F 81% 30.11 in 10.0 mi SSE 8.1 mph - N/A   Clear
9:15 AM 35.6 °F 28.6 °F 28.4 °F 75% 30.11 in 10.0 mi SSE 9.2 mph - N/A   Clear
9:35 AM 35.6 °F 28.6 °F 28.4 °F 75% 30.11 in 10.0 mi South 9.2 mph - N/A   Clear
9:55 AM 37.4 °F 30.8 °F 30.2 °F 75% 30.11 in 10.0 mi South 9.2 mph - N/A   Clear
10:15 AM 39.2 °F 33.0 °F 30.2 °F 70% 30.11 in 10.0 mi SSW 9.2 mph - N/A   Clear
10:35 AM 42.8 °F 38.0 °F 30.2 °F 61% 30.11 in 10.0 mi South 8.1 mph - N/A   Clear
10:55 AM 44.6 °F 39.7 °F 30.2 °F 57% 30.11 in 10.0 mi South 9.2 mph - N/A   Clear
11:15 AM 44.6 °F 42.2 °F 30.2 °F 57% 30.09 in 10.0 mi South 4.6 mph - N/A   Clear
11:35 AM 46.4 °F 43.5 °F 30.2 °F 53% 30.08 in 10.0 mi SSE 5.8 mph - N/A   Clear
11:55 AM 46.4 °F 43.5 °F 30.2 °F 53% 30.08 in 10.0 mi South 5.8 mph - N/A   Clear
12:15 PM 46.4 °F 44.3 °F 30.2 °F 53% 30.07 in 10.0 mi South 4.6 mph - N/A   Clear
12:35 PM 48.2 °F - 30.2 °F 50% 30.06 in 10.0 mi South 4.6 mph - N/A   Clear
12:55 PM 50.0 °F - 30.2 °F 47% 30.05 in 10.0 mi South 8.1 mph - N/A   Clear
1:15 PM 50.0 °F - 30.2 °F 47% 30.04 in 10.0 mi South 5.8 mph - N/A   Clear
1:35 PM 51.8 °F - 30.2 °F 44% 30.03 in 10.0 mi South 5.8 mph - N/A   Clear
1:55 PM 51.8 °F - 30.2 °F 44% 30.03 in 10.0 mi SSE 5.8 mph - N/A   Clear
2:15 PM 50.0 °F - 30.2 °F 47% 30.03 in 10.0 mi SE 5.8 mph - N/A   Clear
2:35 PM 50.0 °F - 30.2 °F 47% 30.02 in 10.0 mi SE 5.8 mph - N/A   Clear
2:55 PM 50.0 °F - 30.2 °F 47% 30.02 in 10.0 mi SE 5.8 mph - N/A   Clear
3:15 PM 50.0 °F - 30.2 °F 47% 30.03 in 10.0 mi SE 5.8 mph - N/A   Clear
3:35 PM 48.2 °F - 30.2 °F 50% 30.03 in 10.0 mi ESE 4.6 mph - N/A   Clear
3:55 PM 46.4 °F 45.2 °F 30.2 °F 53% 30.03 in 10.0 mi ESE 3.5 mph - N/A   Clear
4:15 PM 46.4 °F 43.5 °F 30.2 °F 53% 30.03 in 10.0 mi ESE 5.8 mph - N/A   Clear
4:35 PM 44.6 °F 41.4 °F 30.2 °F 57% 30.03 in 10.0 mi ESE 5.8 mph - N/A   Clear
4:55 PM 44.6 °F 42.2 °F 30.2 °F 57% 30.03 in 10.0 mi ESE 4.6 mph - N/A   Clear
5:15 PM 42.8 °F 38.6 °F 30.2 °F 61% 30.04 in 10.0 mi SE 6.9 mph - N/A   Clear
5:35 PM 42.8 °F 39.3 °F 30.2 °F 61% 30.05 in 10.0 mi SE 5.8 mph - N/A   Clear
5:55 PM 41.0 °F 36.4 °F 30.2 °F 65% 30.05 in 10.0 mi ESE 6.9 mph - N/A   Clear
6:15 PM 41.0 °F 36.4 °F 30.2 °F 65% 30.05 in 10.0 mi ESE 6.9 mph - N/A   Clear
6:35 PM 41.0 °F 37.1 °F 30.2 °F 65% 30.05 in 10.0 mi ESE 5.8 mph - N/A   Clear
6:55 PM 42.8 °F 39.3 °F 30.2 °F 61% 30.04 in 10.0 mi ESE 5.8 mph - N/A   Clear
7:15 PM 41.0 °F 37.1 °F 30.2 °F 65% 30.05 in 10.0 mi ESE 5.8 mph - N/A   Clear
7:35 PM 41.0 °F 36.4 °F 30.2 °F 65% 30.04 in 10.0 mi ESE 6.9 mph - N/A   Scattered Clouds
7:55 PM 42.8 °F 39.3 °F 30.2 °F 61% 30.03 in 10.0 mi ESE 5.8 mph - N/A   Clear
8:15 PM 41.0 °F 36.4 °F 30.2 °F 65% 30.03 in 10.0 mi ESE 6.9 mph - N/A   Clear
8:35 PM 41.0 °F 38.0 °F 30.2 °F 65% 30.04 in 10.0 mi ESE 4.6 mph - N/A   Clear
8:55 PM 41.0 °F 38.0 °F 32.0 °F 70% 30.04 in 10.0 mi East 4.6 mph - N/A   Clear
9:15 PM 41.0 °F 36.4 °F 32.0 °F 70% 30.04 in 10.0 mi East 6.9 mph - N/A   Clear
9:35 PM 41.0 °F 38.0 °F 32.0 °F 70% 30.04 in 10.0 mi East 4.6 mph - N/A   Clear
9:55 PM 41.0 °F 37.1 °F 32.0 °F 70% 30.04 in 10.0 mi East 5.8 mph - N/A   Clear
10:15 PM 41.0 °F 37.1 °F 32.0 °F 70% 30.04 in 10.0 mi East 5.8 mph - N/A   Clear
10:35 PM 41.0 °F 36.4 °F 32.0 °F 70% 30.04 in 10.0 mi ENE 6.9 mph - N/A   Scattered Clouds
10:55 PM 39.2 °F 33.0 °F 32.0 °F 75% 30.04 in 10.0 mi ENE 9.2 mph - N/A   Scattered Clouds
11:15 PM 41.0 °F 35.2 °F 32.0 °F 70% 30.04 in 10.0 mi ENE 9.2 mph - N/A   Clear
11:35 PM 41.0 °F 35.8 °F 32.0 °F 70% 30.04 in 10.0 mi East 8.1 mph - N/A   Mostly Cloudy
11:55 PM 41.0 °F 35.2 °F 32.0 °F 70% 30.03 in 10.0 mi East 9.2 mph - N/A   Overcast